This is the latest recevied weather packets stored in our database for station/object AE0NK. If no packets are shown the sender has not sent any weather packets the latest 10 day(s).
| Time | Temp. | Humidity | Pressure | Rain* | Wind** | Luminosity | Snow |
|---|---|---|---|---|---|---|---|
| 1777903692 | 17.22° C | 55% | 1002.2 hPa | 0 mm | - | 167 W/m² | - |
| 1777903411 | 17.78° C | 55% | 1002.2 hPa | 0 mm | - | 202 W/m² | - |
| 1777903105 | 17.22° C | 57% | 1002.2 hPa | 0 mm | - | 250 W/m² | - |
| 1777902802 | 16.67° C | 58% | 1002.4 hPa | 0 mm | - | 489 W/m² | - |
| 1777902500 | 16.11° C | 57% | 1002.5 hPa | 0 mm | - | 369 W/m² | - |
| 1777902198 | 16.11° C | 57% | 1002.4 hPa | 0 mm | - | 323 W/m² | - |
| 1777901897 | 15.56° C | 58% | 1002.5 hPa | 0 mm | - | 301 W/m² | - |
| 1777901594 | 15° C | 60% | 1002.4 hPa | 0 mm | - | 271 W/m² | - |
| 1777901292 | 14.44° C | 61% | 1002.4 hPa | 0 mm | - | 285 W/m² | - |
| 1777901009 | 13.89° C | 60% | 1002.4 hPa | 0 mm | - | 279 W/m² | - |
| 1777900708 | 13.89° C | 62% | 1002.5 hPa | 0 mm | - | 272 W/m² | - |
| 1777900405 | 13.33° C | 63% | 1002.6 hPa | 0 mm | - | 248 W/m² | - |
| 1777900101 | 12.78° C | 64% | 1002.7 hPa | 0 mm | - | 214 W/m² | - |
| 1777899510 | 12.22° C | 66% | 1003 hPa | 0 mm | - | 91 W/m² | - |
| 1777899207 | 11.67° C | 67% | 1003 hPa | 0 mm | - | 72 W/m² | - |
| 1777898906 | 11.11° C | 68% | 1003.1 hPa | 0 mm | - | 76 W/m² | - |
| 1777898604 | 11.11° C | 68% | 1003 hPa | 0 mm | - | 56 W/m² | - |
| 1777898300 | 10.56° C | 69% | 1003 hPa | 0 mm | - | 47 W/m² | - |
| 1777897998 | 10.56° C | 69% | 1003.1 hPa | 0 mm | - | 44 W/m² | - |
| 1777897696 | 10.56° C | 70% | 1003.1 hPa | 0 mm | - | 39 W/m² | - |
| 1777897392 | 10° C | 70% | 1003.1 hPa | 0 mm | - | 35 W/m² | - |
| 1777897110 | 10° C | 70% | 1003.2 hPa | 0 mm | - | 32 W/m² | - |
| 1777896807 | 10° C | 70% | 1003.1 hPa | 0 mm | - | 30 W/m² | - |
| 1777896506 | 9.44° C | 71% | 1003.1 hPa | 0 mm | - | 28 W/m² | - |
| 1777896203 | 9.44° C | 71% | 1003.2 hPa | 0 mm | - | 26 W/m² | - |
* Rain latest hour (hover to see other rain measurements)
** Current wind speed in m/s (hover to see current wind gust speed)